Terminal Aerodrome Forecast
Issued by NWS Sterling, VA

Current Version | Previous Version | Graphics & Text | Print | Product List | Glossary On
Versions: 1 2 3 4 5 6 7 8 9 10 11 12 13 14 15 16 17 18 19
000
FTUS41 KLWX 252334
TAFIAD
TAF
KIAD 252334Z 2600/2706 18006KT P6SM FEW250
     FM260800 VRB03KT P6SM SCT200
     FM261100 VRB03KT P6SM BKN090
     FM261400 21004KT P6SM SCT090
     FM261900 20007KT P6SM BKN060=

USA.gov is the U.S. government's official web portal to all federal, state and local government web resources and services.